H1 CPF 2 NER 2024 6 29 9 181 01 glonass137 H2 1705501 9137 42939 2024 6 29 0 0 0 2024 7 2 23 45 0 900 1 1 0 0 0 1 H9 10 0 60490 0.00000 0 -14630564.630 6644343.246 -19784411.584 10 0 60490 900.00000 0 -13439164.131 4408848.099 -21203823.189 10 0 60490 1800.00000 0 -12351728.154 1956612.168 -22210480.872 10 0 60490 2700.00000 0 -11409772.408 -658718.435 -22784851.323 10 0 60490 3600.00000 0 -10645074.529 -3376218.260 -22915832.961 10 0 60490 4500.00000 0 -10078384.660 -6129978.157 -22600966.644 10 0 60490 5400.00000 0 -9718620.377 -8851612.765 -21846476.727 10 0 60490 6300.00000 0 -9562578.926 -11472875.635 -20667142.200 10 0 60490 7200.00000 0 -9595177.759 -13928273.300 -19086000.971 10 0 60490 8100.00000 0 -9790212.000 -16157569.915 -17133893.497 10 0 60490 9000.00000 0 -10111595.717 -18108078.753 -14848855.106 10 0 60490 9900.00000 0 -10515033.446 -19736645.871 -12275369.206 10 0 60490 10800.00000 0 -10950050.439 -21011244.276 -9463496.294 10 0 60490 11700.00000 0 -11362295.007 -21912113.326 -6467896.030 10 0 60490 12600.00000 0 -11696015.074 -22432397.162 -3346761.752 10 0 60490 13500.00000 0 -11896603.811 -22578257.048 -160688.452 10 0 60490 14400.00000 0 -11913106.537 -22368454.500 3028503.550 10 0 60490 15300.00000 0 -11700582.875 -21833424.215 6158966.192 10 0 60490 16200.00000 0 -11222224.426 -21013877.023 9170019.252 10 0 60490 17100.00000 0 -10451138.694 -19958992.592 12003320.917 10 0 60490 18000.00000 0 -9371724.075 -18724278.433 14603990.965 10 0 60490 18900.00000 0 -7980577.960 -17369185.411 16921665.423 10 0 60490 19800.00000 0 -6286899.408 -15954579.658 18911463.043 10 0 60490 20700.00000 0 -4312368.928 -14540176.453 20534845.796 10 0 60490 21600.00000 0 -2090509.375 -13182042.805 21760357.710 10 0 60490 22500.00000 0 334446.632 -11930272.354 22564228.688 10 0 60490 23400.00000 0 2909137.183 -10826928.890 22930832.348 10 0 60490 24300.00000 0 5573035.465 -9904343.543 22852989.565 10 0 60490 25200.00000 0 8260718.400 -9183836.090 22332111.960 10 0 60490 26100.00000 0 10904347.184 -8674913.365 21378182.342 10 0 60490 27000.00000 0 13436258.539 -8374978.122 20009571.858 10 0 60490 27900.00000 0 15791560.565 -8269560.639 18252696.410 10 0 60490 28800.00000 0 17910626.470 -8333063.717 16141517.817 10 0 60490 29700.00000 0 19741383.136 -8529990.318 13716898.044 10 0 60490 30600.00000 0 21241299.510 -8816602.768 11025817.709 10 0 60490 31500.00000 0 22378991.730 -9142944.124 8120472.904 10 0 60490 32400.00000 0 23135377.516 -9455136.668 5057267.022 10 0 60490 33300.00000 0 23504330.929 -9697860.391 1895716.673 10 0 60490 34200.00000 0 23492809.412 -9816906.168 -1302707.070 10 0 60490 35100.00000 0 23120447.288 -9761694.747 -4475779.195 10 0 60490 36000.00000 0 22418632.484 -9487653.630 -7561739.020 10 0 60490 36900.00000 0 21429105.322 -8958349.729 -10500501.469 10 0 60490 37800.00000 0 20202138.650 -8147285.781 -13234836.720 10 0 60490 38700.00000 0 18794376.518 -7039282.789 -15711494.136 10 0 60490 39600.00000 0 17266423.160 -5631388.337 -17882247.588 10 0 60490 40500.00000 0 15680284.675 -3933270.854 -19704841.042 10 0 60490 41400.00000 0 14096771.831 -1967081.821 -21143815.486 10 0 60490 42300.00000 0 12572973.940 233209.429 -22171200.853 10 0 60490 43200.00000 0 11159910.362 2622981.297 -22767059.510 10 0 60490 44100.00000 0 9900458.375 5148577.738 -22919871.009 10 0 60490 45000.00000 0 8827644.146 7749311.093 -22626751.017 10 0 60490 45900.00000 0 7963367.859 10359766.598 -21893500.699 10 0 60490 46800.00000 0 7317615.525 12912312.680 -20734486.117 10 0 60490 47700.00000 0 6888189.286 15339712.561 -19172350.540 10 0 60490 48600.00000 0 6660966.078 17577728.617 -17237565.744 10 0 60490 49500.00000 0 6610672.177 19567611.308 -14967831.438 10 0 60490 50400.00000 0 6702139.469 21258369.424 -12407334.952 10 0 60490 51300.00000 0 6891989.032 22608727.666 -9605885.913 10 0 60490 52200.00000 0 7130669.710 23588690.729 -6617943.098 10 0 60490 53100.00000 0 7364764.537 24180649.625 -3501552.742 10 0 60490 54000.00000 0 7539466.765 24379985.232 -317219.267 10 0 60490 54900.00000 0 7601120.294 24195145.130 2873269.405 10 0 60490 55800.00000 0 7499716.820 23647191.848 6008038.917 10 0 60490 56700.00000 0 7191244.063 22768842.701 9026324.671 10 0 60490 57600.00000 0 6639785.909 21603042.481 11869644.121 10 0 60490 58500.00000 0 5819285.902 20201129.614 14482922.754 10 0 60490 59400.00000 0 4714899.748 18620673.004 16815552.544 10 0 60490 60300.00000 0 3323879.709 16923070.155 18822363.163 10 0 60490 61200.00000 0 1655953.291 15171006.753 20464488.020 10 0 60490 62100.00000 0 -266820.469 13425883.212 21710109.367 10 0 60490 63000.00000 0 -2410712.237 11745314.756 22535068.990 10 0 60490 63900.00000 0 -4731475.052 10180808.363 22923333.390 10 0 60490 64800.00000 0 -7175942.100 8775712.370 22867305.022 10 0 60490 65700.00000 0 -9684005.079 7563523.298 22367973.703 10 0 60490 66600.00000 0 -12190892.788 6566619.724 21434905.069 10 0 60490 67500.00000 0 -14629657.142 5795475.499 20086065.680 10 0 60490 68400.00000 0 -16933764.905 5248384.890 18347487.242 10 0 60490 69300.00000 0 -19039688.624 4911711.149 16252775.219 10 0 60490 70200.00000 0 -20889389.770 4760648.233 13842470.072 10 0 60490 71100.00000 0 -22432591.000 4760463.997 11163272.158 10 0 60490 72000.00000 0 -23628742.600 4868172.835 8267144.191 10 0 60490 72900.00000 0 -24448600.479 5034567.437 5210307.835 10 0 60490 73800.00000 0 -24875348.911 5206523.814 2052153.368 10 0 60490 74700.00000 0 -24905220.114 5329481.753 -1145916.403 10 0 60490 75600.00000 0 -24547583.808 5349995.009 -4321685.180 10 0 60490 76500.00000 0 -23824502.302 5218242.126 -7413341.173 10 0 60490 77400.00000 0 -22769769.430 4890390.141 -10360689.311 10 0 60490 78300.00000 0 -21427473.633 4330709.471 -13106333.030 10 0 60490 79200.00000 0 -19850145.868 3513348.710 -15596801.489 10 0 60490 80100.00000 0 -18096570.738 2423692.591 -17783599.249 10 0 60490 81000.00000 0 -16229353.513 1059244.084 -19624157.192 10 0 60490 81900.00000 0 -14312345.984 -570008.005 -21082665.661 10 0 60490 82800.00000 0 -12408039.878 -2441752.702 -22130773.311 10 0 60490 83700.00000 0 -10575037.615 -4522045.875 -22748138.148 10 0 60490 84600.00000 0 -8865706.609 -6766496.509 -22922820.259 10 0 60490 85500.00000 0 -7324115.213 -9121901.060 -22651509.007 10 0 60491 0.00000 0 -5984336.277 -11528257.681 -21939580.872 10 0 60491 900.00000 0 -4869187.739 -13921077.709 -20800986.879 10 0 60491 1800.00000 0 -3989463.449 -16233894.808 -19257973.395 10 0 60491 2700.00000 0 -3343682.510 -18400871.498 -17340640.946 10 0 60491 3600.00000 0 -2918367.709 -20359391.301 -15086350.898 10 0 60491 4500.00000 0 -2688838.768 -22052529.825 -12538991.689 10 0 60491 5400.00000 0 -2620485.321 -23431301.861 -9748119.259 10 0 60491 6300.00000 0 -2670464.352 -24456591.179 -6767988.751 10 0 60491 7200.00000 0 -2789749.019 -25100683.059 -3656496.677 10 0 60491 8100.00000 0 -2925441.188 -25348336.400 -474054.414 10 0 60491 9000.00000 0 -3023249.097 -25197351.516 2717584.810 10 0 60491 9900.00000 0 -3030024.848 -24658610.913 5856522.482 10 0 60491 10800.00000 0 -2896254.171 -23755592.395 8881911.609 10 0 60491 11700.00000 0 -2578393.180 -22523375.804 11735130.748 10 0 60491 12600.00000 0 -2040953.482 -21007185.683 14360912.772 10 0 60491 13500.00000 0 -1258247.761 -19260531.272 16708407.118 10 0 60491 14400.00000 0 -215722.259 -17343021.669 18732155.689 10 0 60491 15300.00000 0 1089180.120 -15317947.164 20392964.429 10 0 60491 16200.00000 0 2646662.849 -13249727.052 21658654.668 10 0 60491 17100.00000 0 4434740.841 -11201329.419 22504680.662 10 0 60491 18000.00000 0 6419921.870 -9231769.329 22914602.124 10 0 60491 18900.00000 0 8558377.478 -7393788.371 22880403.160 10 0 60491 19800.00000 0 10797556.411 -5731810.989 22402651.616 10 0 60491 20700.00000 0 13078175.258 -4280261.666 21490495.551 10 0 60491 21600.00000 0 15336505.371 -3062312.220 20161496.334 10 0 60491 22500.00000 0 17506862.613 -2089110.832 18441300.633 10 0 60491 23400.00000 0 19524197.643 -1359524.711 16363156.506 10 0 60491 24300.00000 0 21326679.824 -860407.025 13967281.604 10 0 60491 25200.00000 0 22858167.480 -567376.945 11300094.435 10 0 60491 26100.00000 0 24070461.323 -446080.156 8413322.457 10 0 60491 27000.00000 0 24925246.353 -453876.827 5363003.405 10 0 60491 27900.00000 0 25395640.118 -541885.744 2208398.745 10 0 60491 28800.00000 0 25467281.359 -657297.929 -989159.721 10 0 60491 29700.00000 0 25138912.235 -745861.236 -4167467.319 10 0 60491 30600.00000 0 24422428.651 -754429.762 -7264664.124 10 0 60491 31500.00000 0 23342395.746 -633468.846 -10220448.011 10 0 60491 32400.00000 0 21935048.397 -339408.063 -12977258.477 10 0 60491 33300.00000 0 20246818.542 163259.066 -15481407.076 10 0 60491 34200.00000 0 18332451.365 900219.134 -17684131.404 10 0 60491 35100.00000 0 16252789.811 1886002.517 -19542551.341 10 0 60491 36000.00000 0 14072320.900 3123124.523 -21020508.387 10 0 60491 36900.00000 0 11856587.301 4601741.507 -22089271.456 10 0 60491 37800.00000 0 9669572.992 6299837.424 -22728095.450 10 0 60491 38700.00000 0 7571172.648 8183933.819 -22924621.942 10 0 60491 39600.00000 0 5614850.556 10210294.000 -22675114.607 10 0 60491 40500.00000 0 3845586.440 12326571.304 -21984525.321 10 0 60491 41400.00000 0 2298193.244 14473832.720 -20866390.171 10 0 60491 42300.00000 0 996075.995 16588873.255 -19342557.958 10 0 60491 43200.00000 0 -49517.892 18606724.415 -17442756.939 10 0 60491 44100.00000 0 -839727.277 20463251.941 -15204008.692 10 0 60491 45000.00000 0 -1387777.320 22097734.319 -12669900.892 10 0 60491 45900.00000 0 -1718165.484 23455314.421 -9889733.536 10 0 60491 46800.00000 0 -1865369.713 24489222.029 -6917555.527 10 0 60491 47700.00000 0 -1872134.984 25162674.665 -3811110.754 10 0 60491 48600.00000 0 -1787412.015 25450377.722 -630714.437 10 0 60491 49500.00000 0 -1664036.368 25339561.788 2561918.157 10 0 60491 50400.00000 0 -1556246.853 24830514.471 5704867.662 10 0 60491 51300.00000 0 -1517148.640 23936585.257 8737207.961 10 0 60491 52200.00000 0 -1596228.499 22683663.907 11600181.868 10 0 60491 53100.00000 0 -1837027.133 21109154.802 14238332.632 10 0 60491 54000.00000 0 -2275066.709 19260490.469 16600569.910 10 0 60491 54900.00000 0 -2936120.845 17193246.400 18641150.356 10 0 60491 55800.00000 0 -3834899.879 14968935.589 20320554.681 10 0 60491 56700.00000 0 -4974206.902 12652574.066 21606245.225 10 0 60491 57600.00000 0 -6344600.542 10310117.898 22473290.320 10 0 60491 58500.00000 0 -7924579.542 8005877.143 22904844.115 10 0 60491 59400.00000 0 -9681282.671 5800013.007 22892473.172 10 0 60491 60300.00000 0 -11571676.358 3746220.905 22436323.690 10 0 60491 61200.00000 0 -13544182.237 1889694.525 21545125.955 10 0 60491 62100.00000 0 -15540678.601 265454.521 20236035.370 10 0 60491 63000.00000 0 -17498794.073 -1102889.467 18534312.222 10 0 60491 63900.00000 0 -19354399.348 -2203892.380 16472845.230 10 0 60491 64800.00000 0 -21044194.169 -3038511.793 14091526.774 10 0 60491 65700.00000 0 -22508282.175 -3619820.636 11436490.592 10 0 60491 66600.00000 0 -23692626.076 -3972206.655 8559225.583 10 0 60491 67500.00000 0 -24551280.039 -4130092.280 5515582.000 10 0 60491 68400.00000 0 -25048304.913 -4136228.934 2364688.780 10 0 60491 69300.00000 0 -25159284.788 -4039638.048 -832197.033 10 0 60491 70200.00000 0 -24872379.903 -3893286.346 -4012886.111 10 0 60491 71100.00000 0 -24188870.320 -3751594.579 -7115474.004 10 0 60491 72000.00000 0 -23123166.313 -3667886.327 -10079554.970 10 0 60491 72900.00000 0 -21702284.089 -3691886.231 -12847407.777 10 0 60491 73800.00000 0 -19964808.237 -3867375.107 -15365129.274 10 0 60491 74700.00000 0 -17959384.220 -4230102.742 -17583692.617 10 0 60491 75600.00000 0 -15742804.174 -4806048.154 -19459908.740 10 0 60491 76500.00000 0 -13377766.531 -5610102.207 -20957271.809 10 0 60491 77400.00000 0 -10930403.667 -6645229.355 -22046671.902 10 0 60491 78300.00000 0 -8467681.366 -7902144.822 -22706961.075 10 0 60491 79200.00000 0 -6054779.023 -9359521.545 -22925362.017 10 0 60491 80100.00000 0 -3752560.014 -10984718.675 -22697711.756 10 0 60491 81000.00000 0 -1615237.519 -12735001.377 -22028536.155 10 0 60491 81900.00000 0 311667.486 -14559200.915 -20930954.301 10 0 60491 82800.00000 0 1992991.842 -16399745.459 -19426415.172 10 0 60491 83700.00000 0 3405151.308 -18194976.480 -17544272.187 10 0 60491 84600.00000 0 4536867.794 -19881653.661 -15321204.348 10 0 60491 85500.00000 0 5389374.279 -21397543.304 -12800495.667 10 0 60492 0.00000 0 5976090.840 -22683981.714 -10031187.476 10 0 60492 900.00000 0 6321787.783 -23688306.868 -7067118.972 10 0 60492 1800.00000 0 6461272.373 -24366054.964 -3965878.731 10 0 60492 2700.00000 0 6437657.267 -24682832.385 -787682.997 10 0 60492 3600.00000 0 6300284.378 -24615783.216 2405793.602 10 0 60492 4500.00000 0 6102393.300 -24154592.033 5552613.349 10 0 60492 5400.00000 0 5898633.485 -23301980.348 8591773.316 10 0 60492 6300.00000 0 5742525.668 -22073676.400 11464382.659 10 0 60492 7200.00000 0 5683979.863 -20497859.951 14114796.843 10 0 60492 8100.00000 0 5766974.573 -18614105.529 16491687.333 10 0 60492 9000.00000 0 6027494.822 -16471868.163 18549026.826 10 0 60492 9900.00000 0 6491815.658 -14128574.458 20246971.798 10 0 60492 10800.00000 0 7175203.235 -11647397.867 21552626.283 10 0 60492 11700.00000 0 8081088.199 -9094809.738 22440673.050 10 0 60492 12600.00000 0 9200746.555 -6538006.769 22893860.749 10 0 60492 13500.00000 0 10513502.252 -4042320.322 22903338.182 10 0 60492 14400.00000 0 11987444.237 -1668713.736 22468829.424 10 0 60492 15300.00000 0 13580629.487 528529.827 21598646.292 10 0 60492 16200.00000 0 15242723.442 2503834.198 20309537.333 10 0 60492 17100.00000 0 16917011.002 4221988.472 18626375.389 10 0 60492 18000.00000 0 18542695.597 5659368.412 16581688.604 10 0 60492 18900.00000 0 20057391.481 6804670.598 14215042.677 10 0 60492 19800.00000 0 21399705.835 7659128.891 11572284.979 10 0 60492 20700.00000 0 22511802.844 8236204.280 8704664.059 10 0 60492 21600.00000 0 23341842.089 8560761.165 5667840.679 10 0 60492 22500.00000 0 23846188.209 8667764.839 2520809.044 10 0 60492 23400.00000 0 23991297.902 8600555.246 -675250.938 10 0 60492 24300.00000 0 23755203.567 8408770.362 -3858167.777 10 0 60492 25200.00000 0 23128529.652 8146007.649 -6965995.031 10 0 60492 26100.00000 0 22114997.454 7867323.494 -9938225.842 10 0 60492 27000.00000 0 20731395.843 7626677.653 -12716980.637 10 0 60492 27900.00000 0 19007018.042 7474432.244 -15248143.790 10 0 60492 28800.00000 0 16982587.426 7455012.561 -17482426.056 10 0 60492 29700.00000 0 14708717.006 7604830.018 -19376331.278 10 0 60492 30600.00000 0 12243967.042 7950556.322 -20893007.970 10 0 60492 31500.00000 0 9652582.219 8507822.779 -22002968.896 10 0 60492 32400.00000 0 7002003.190 9280400.503 -22684664.636 10 0 60492 33300.00000 0 4360256.550 10259896.631 -22924900.193 10 0 60492 34200.00000 0 1793332.237 11425979.721 -22719086.914 10 0 60492 35100.00000 0 -637342.504 12747125.025 -22071325.337 10 0 60492 36000.00000 0 -2877227.797 14181848.292 -20994317.894 10 0 60492 36900.00000 0 -4880698.365 15680376.190 -19509113.683 10 0 60492 37800.00000 0 -6612689.974 17186682.997 -17644690.802 10 0 60492 38700.00000 0 -8049897.917 18640807.870 -15437384.761 10 0 60492 39600.00000 0 -9181479.238 19981355.191 -12930174.557 10 0 60492 40500.00000 0 -10009231.343 21148072.858 -10171840.610 10 0 60492 41400.00000 0 -10547241.626 22084400.186 -7216011.304 10 0 60492 42300.00000 0 -10821024.886 22739878.385 -4120117.038 10 0 60492 43200.00000 0 -10866186.820 23072322.510 -944272.419 10 0 60492 44100.00000 0 -10726671.561 23049663.847 2249891.411 10 0 60492 45000.00000 0 -10452668.572 22651385.664 5400421.391 10 0 60492 45900.00000 0 -10098268.232 21869492.386 8446240.859 10 0 60492 46800.00000 0 -9718965.704 20708971.855 11328328.443 10 0 60492 47700.00000 0 -9369118.676 19187731.502 13990854.923 10 0 60492 48600.00000 0 -9099466.213 17336011.181 16382256.600 10 0 60492 49500.00000 0 -8954813.002 15195296.991 18456225.124 10 0 60492 50400.00000 0 -8971976.167 12816780.991 20172595.463 10 0 60492 51300.00000 0 -9178080.668 10259430.214 21498115.847 10 0 60492 52200.00000 0 -9589274.701 7587744.269 22407085.701 10 0 60492 53100.00000 0 -10209919.071 4869293.436 22881850.051 10 0 60492 54000.00000 0 -11032284.919 2172138.022 22913141.392 10 0 60492 54900.00000 0 -12036773.206 -437765.550 22500262.668 10 0 60492 55800.00000 0 -13192647.865 -2899065.756 21651107.680 10 0 60492 56700.00000 0 -14459253.269 -5157321.723 20382017.998 10 0 60492 57600.00000 0 -15787666.568 -7167019.135 18717478.290 10 0 60492 58500.00000 0 -17122717.188 -8893213.346 16689654.801 10 0 60492 59400.00000 0 -18405290.201 -10312731.915 14337784.647 10 0 60492 60300.00000 0 -19574817.997 -11414886.729 11707426.409 10 0 60492 61200.00000 0 -20571856.250 -12201666.078 8849585.412 10 0 60492 62100.00000 0 -21340636.005 -12687398.670 5819729.708 10 0 60492 63000.00000 0 -21831484.124 -12897903.735 2676715.282 10 0 60492 63900.00000 0 -22003009.249 -12869163.074 -518358.742 10 0 60492 64800.00000 0 -21823959.943 -12645571.342 -3703342.441 10 0 60492 65700.00000 0 -21274675.119 -12277838.966 -6816251.133 10 0 60492 66600.00000 0 -20348064.037 -11820637.119 -9796480.530 10 0 60492 67500.00000 0 -19050072.953 -11330085.362 -12585996.281 10 0 60492 68400.00000 0 -17399617.395 -10861189.429 -15130473.645 10 0 60492 69300.00000 0 -15427981.760 -10465338.834 -17380364.041 10 0 60492 70200.00000 0 -13177710.616 -10187971.367 -19291866.885 10 0 60492 71100.00000 0 -10701037.707 -10066504.328 -20827787.215 10 0 60492 72000.00000 0 -8057918.183 -10128620.830 -21958262.083 10 0 60492 72900.00000 0 -5313746.296 -10390984.180 -22661341.563 10 0 60492 73800.00000 0 -2536853.852 -10858434.989 -22923413.299 10 0 60492 74700.00000 0 204106.228 -11523705.006 -22739462.670 10 0 60492 75600.00000 0 2842782.326 -12367659.700 -22113164.039 10 0 60492 76500.00000 0 5317643.679 -13360059.128 -21056801.837 10 0 60492 77400.00000 0 7574292.700 -14460804.774 -19591023.520 10 0 60492 78300.00000 0 9567474.698 -15621619.453 -17744429.738 10 0 60492 79200.00000 0 11262702.474 -16788089.249 -15553010.077 10 0 60492 80100.00000 0 12637429.540 -17901981.142 -13059435.815 10 0 60492 81000.00000 0 13681724.741 -18903738.492 -10312223.780 10 0 60492 81900.00000 0 14398422.042 -19735049.124 -7364787.926 10 0 60492 82800.00000 0 14802741.223 -20341377.745 -4274397.448 10 0 60492 83700.00000 0 14921397.438 -20674356.086 -1101061.999 10 0 60492 84600.00000 0 14791238.919 -20693930.229 2093634.070 10 0 60492 85500.00000 0 14457471.760 -20370174.894 5247725.551 10 0 60493 0.00000 0 13971547.887 -19684698.687 8300064.792 10 0 60493 900.00000 0 13388805.801 -18631580.971 11191503.175 10 0 60493 1800.00000 0 12765964.723 -17217802.132 13866028.924 10 0 60493 2700.00000 0 12158576.913 -15463147.938 16271845.203 10 0 60493 3600.00000 0 11618545.908 -13399592.499 18362364.229 10 0 60493 4500.00000 0 11191814.421 -11070184.789 20097100.665 10 0 60493 5400.00000 0 10916318.624 -8527484.340 21442447.715 10 0 60493 6300.00000 0 10820294.227 -5831610.086 22372321.831 10 0 60493 7200.00000 0 10921005.097 -3047982.102 22868664.394 10 0 60493 8100.00000 0 11223947.628 -244848.435 22921791.221 10 0 60493 9000.00000 0 11722564.454 2509302.057 22530583.432 10 0 60493 9900.00000 0 12398480.060 5148335.147 21702515.841 10 0 60493 10800.00000 0 13222249.349 7610968.872 20453521.837 10 0 60493 11700.00000 0 14154588.916 9843070.987 18807696.513 10 0 60493 12600.00000 0 15148040.669 11799661.779 16796842.633 10 0 60493 13500.00000 0 16148999.215 13446539.648 14459867.004 10 0 60493 14400.00000 0 17100018.892 14761462.078 11842037.542 10 0 60493 15300.00000 0 17942304.155 15734832.808 8994114.337 10 0 60493 16200.00000 0 18618278.770 16369866.423 5971370.585 10 0 60493 17100.00000 0 19074125.354 16682223.388 2832521.810 10 0 60493 18000.00000 0 19262187.460 16699130.779 -361415.983 10 0 60493 18900.00000 0 19143131.723 16458025.883 -3548316.793 10 0 60493 19800.00000 0 18687777.323 16004780.155 -6666160.021 10 0 60493 20700.00000 0 17878513.884 15391579.077 -9654246.172 10 0 60493 21600.00000 0 16710246.233 14674548.333 -12454388.202 10 0 60493 22500.00000 0 15190824.565 13911227.610 -15012054.162 10 0 60493 23400.00000 0 13340940.379 13157999.941 -17277437.861 10 0 60493 24300.00000 0 11193491.413 12467586.341 -19206435.854 10 0 60493 25200.00000 0 8792441.278 11886712.607 -20761511.132 10 0 60493 26100.00000 0 6191221.019 11454047.598 -21912426.354 10 0 60493 27000.00000 0 3450739.107 11198500.593 -22636832.319 10 0 60493 27900.00000 0 637082.787 11137949.766 -22920700.417 10 0 60493 28800.00000 0 -2180993.397 11278455.368 -22758591.006 10 0 60493 29700.00000 0 -4934687.392 11613990.483 -22153752.999 10 0 60493 30600.00000 0 -7557768.891 12126700.198 -21118053.242 10 0 60493 31500.00000 0 -9989089.405 12787677.658 -19671737.621 10 0 60493 32400.00000 0 -12174879.358 13558223.596 -17843029.004 10 0 60493 33300.00000 0 -14070737.474 14391535.602 -15667570.338 10 0 60493 34200.00000 0 -15643230.746 15234755.258 -13187724.089 10 0 60493 35100.00000 0 -16871039.723 16031286.306 -10451742.067 10 0 60493 36000.00000 0 -17745602.985 16723285.648 -7512822.082 10 0 60493 36900.00000 0 -18271235.662 17254221.772 -4428070.166 10 0 60493 37800.00000 0 -18464718.961 17571392.546 -1257388.838 10 0 60493 38700.00000 0 -18354379.763 17628296.108 1937686.718 10 0 60493 39600.00000 0 -17978700.643 17386754.919 5095181.698 10 0 60493 40500.00000 0 -17384520.182 16818703.592 8153880.712 10 0 60493 41400.00000 0 -16624900.373 15907565.312 11054509.650 10 0 60493 42300.00000 0 -15756751.522 14649159.010 13740877.688 10 0 60493 43200.00000 0 -14838314.888 13052099.067 16160957.851 10 0 60493 44100.00000 0 -13926608.807 11137670.477 18267885.899 10 0 60493 45000.00000 0 -13074945.234 8939184.091 20020859.072 10 0 60493 45900.00000 0 -12330620.397 6500837.976 21385918.247 10 0 60493 46800.00000 0 -11732875.717 3876131.105 22336599.363 10 0 60493 47700.00000 0 -11311213.867 1125893.987 22854442.293 10 0 60493 48600.00000 0 -11084139.975 -1683983.654 22929347.931 10 0 60493 49500.00000 0 -11058380.489 -4485035.593 22559776.890 10 0 60493 50400.00000 0 -11228612.439 -7208810.961 21752785.830 10 0 60493 51300.00000 0 -11577714.866 -9789469.403 20523900.276 10 0 60493 52200.00000 0 -12077532.541 -12166273.290 18896825.513 10 0 60493 53100.00000 0 -12690120.835 -14285874.588 16903000.065 10 0 60493 54000.00000 0 -13369420.454 -16104302.069 14580999.129 10 0 60493 54900.00000 0 -14063292.561 -17588566.545 11975798.177 10 0 60493 55800.00000 0 -14715829.342 -18717817.237 9137909.854 10 0 60493 56700.00000 0 -15269843.033 -19484000.816 6122409.921 10 0 60493 57600.00000 0 -15669428.380 -19891995.296 2987870.553 10 0 60493 58500.00000 0 -15862489.817 -19959212.872 -204778.481 10 0 60493 59400.00000 0 -15803125.638 -19714688.290 -3393438.414 10 0 60493 60300.00000 0 -15453767.051 -19197691.208 -6516056.168 10 0 60493 61200.00000 0 -14786980.080 -18455921.342 -9511840.589 10 0 60493 62100.00000 0 -13786852.414 -17543363.162 -12322455.493 10 0 60493 63000.00000 0 -12449904.878 -16517891.463 -14893165.240 10 0 60493 63900.00000 0 -10785487.390 -15438729.906 -17173909.398 10 0 60493 64800.00000 0 -8815641.262 -14363870.767 -19120284.780 10 0 60493 65700.00000 0 -6574432.405 -13347565.737 -20694415.091 10 0 60493 66600.00000 0 -4106782.495 -12437994.368 -21865690.898 10 0 60493 67500.00000 0 -1466846.401 -11675208.924 -22611365.493 10 0 60493 68400.00000 0 1283996.738 -11089442.439 -22916995.223 10 0 60493 69300.00000 0 4079455.144 -10699851.084 -22776716.061 10 0 60493 70200.00000 0 6850842.584 -10513743.303 -22193351.563 10 0 60493 71100.00000 0 9529698.393 -10526327.493 -21178350.593 10 0 60493 72000.00000 0 12050400.520 -10720987.891 -19751556.583 10 0 60493 72900.00000 0 14352663.273 -11070076.038 -17940813.325 10 0 60493 73800.00000 0 16383816.417 -11536183.395 -15781415.383 10 0 60493 74700.00000 0 18100771.522 -12073840.468 -13315414.250 10 0 60493 75600.00000 0 19471594.731 -12631569.813 -10590794.128 10 0 60493 76500.00000 0 20476621.664 -13154205.555 -7660533.699 10 0 60493 77400.00000 0 21109069.393 -13585380.861 -4581572.497 10 0 60493 78300.00000 0 21375121.582 -13870077.922 -1413702.310 10 0 60493 79200.00000 0 21293484.940 -13957132.486 1781594.592 10 0 60493 80100.00000 0 20894437.196 -13801587.124 4942337.571 10 0 60493 81000.00000 0 20218408.061 -13366793.890 8007246.880 10 0 60493 81900.00000 0 19314153.932 -12626177.769 10916926.870 10 0 60493 82800.00000 0 18236603.858 -11564586.642 13615010.455 10 0 60493 83700.00000 0 17044467.682 -10179170.890 16049243.165 10 0 60493 84600.00000 0 15797706.813 -8479755.384 18172486.493 10 0 60493 85500.00000 0 14554973.451 -6488687.708 19943621.962 99